Погода в Богучаре

Погода в Богучаре : погода сейчас, прогноз погоды и архив. Всё, что Вы хотите узнать о погоде в Богучаре!

Хотите узнать прогноз погоды в Богучаре? Тогда Вам сюда: Погода в Богучаре

Поиск расширенной информации на нашем сайте:

Другие новости

Новости СМИ2

Главная страница сайта

Новости сайта

03.07.2017

Напоминаем, что на нашем специализированном сайте Метеоцентр.Азия вы можете получить высокодетализированные автоматические прогнозы погоды по пунктам России, СНГ и мира в авиационном формате (включающие направление и скорость ветра, видимость, явления погоды, количество и форму облачности, нижнюю и верхнюю границу облачности).


Погода в Богучаре - сегодня

Время (UTC), дата Ветер
(°,м/с) 
Видим.   Явления Облачность Т
(°С)
Тd
(°С)
f(%) Тe
(°С)
Pmin
(гПа)
dP
(гПа)
Po
(мм)
O2
(г/м3)
Тmin Tmax R s Состояние
почвы
09 16.08.18 200 (Ю) 20000 м    ясно 
+32 +12.1 30 +36  1016.3  -0.7  755  270           
12 16.08.18 200 (Ю) 20000 м    ясно 
+33.5 +10.7 25 +35  1015.6  -0.7  755  269           
15 16.08.18 070 (В) 20000 м    ясно 
+32.3 +12.8 31 +37  1014.5  -1.1  754  269    +34.4       
18 16.08.18 050 (СВ) 10 км    ясно 
+24.7 +11.3 43 +27  1015.4  0.7  754  277           
21 16.08.18 250 (З) 10 км    ясно 
+18.9 +12.1 65 +24  1015.9  0.3  755  282           
00 17.08.18 тихо ()   10 км    ясно 
+15.8 +11.6 76 +19  1016  755  285           
03 17.08.18 тихо ()   20000 м    4/0 средняя 
[Ac und]
+14.3 +11.1 81 +17  1016.3  0.2  755  287  +14.1         
06 17.08.18 090 (В) 20000 м    6/0 средняя 
[Ac trans]
+22.9 +14.6 59 +31  1016.8  0.8  755  278           
09 17.08.18 050 (СВ) 20000 м    3/0 верхняя 
[Ci]
+29.5 +14.6 40 +37  1016.3  -0.3  755  272           
12 17.08.18 020 (С) 20000 м    4/3 1000 м верхняя 
[Cu med, cong|Ci fib]
+31.3 +13.6 34 +37  1015.8  -0.4  755  270           
15 17.08.18 020 (С) 20000 м    9/8 1000 м средняя 
[Sc|Ac trans]
+26.9 +14.8 47 +35  1016.3  0.3  755  274    +32.4       
18 17.08.18 020 (С) 10 км    ясно 
+23.1 +15.3 61 +32  1016.5  0.1  755  277           
21 17.08.18 020 (С) 10 км    ясно 
+20 +14.2 69 +27  1017.4  0.8  756  281           
00 18.08.18 020 (С) 10 км    ясно 
+17.8 +13 73 +24  1018  0.5  756  283           
03 18.08.18 020 (С) 20000 м    6/6 600 м кучево-дожд. 
[Cb calv]
+17.1 +13.2 78 +24  1018.5  0.5  756  284  +16.7         
06 18.08.18 050 (СВ) 20000 м    3/0 средняя 
[Ac trans]
+21.3 +11.2 53 +24  1019.3  0.9  757  281           
09 18.08.18 050 (СВ) 5{11}  20000 м    ясно 
+24.8 +9.7 38 +25  1019.1  -0.1  757  278           
12 18.08.18 050 (СВ) 4{11}  20000 м    ясно 
+25.7 +6.6 30 +26  1018.9  -0.2  757  278           
15 18.08.18 050 (СВ) 3{10}  20000 м    ясно 
+24.9 +6.4 31 +25  1018.9  757  279    +26.1       
18 18.08.18 050 (СВ) 10 км    ясно 
+20.2 +7.9 45 +20  1020.4  1.4  758  283           
21 18.08.18 020 (С) 10 км    ясно 
+17.1 +7.1 52 +18  1021.4  0.8  759  286           
00 19.08.18 050 (СВ) 10 км    ясно 
+12.1 +7.6 74 +13  1021.9  0.4  759  292           
03 19.08.18 тихо ()   20000 м    ясно 
+10.9 +7.8 81 +11  1022.8  0.8  759  293  +10.4         
06 19.08.18 090 (В) 20000 м    ясно 
+18.2 +8.3 52 +19  1022.6  0.1  760  286           
09 19.08.18 090 (В) 20000 м    ясно 
+24.4 +9.6 39 +25  1021.8  -0.6  759  279           
Время (UTC), дата Ветер
(°,м/с) 
Видим.   Явления Облачность Т
(°С)
Тd
(°С)
f(%) Тe
(°С)
Pmin
(гПа)
dP
(гПа)
Po
(мм)
O2
(г/м3)
Тmin Tmax R s Состояние
почвы

Для получения пояснительной информации подведите курсор к названию столбца.

ПОГОДА в Богучаре - архив

Всё, что Вы хотите узнать о погоде в Богучаре - удобно и подробно!

Выберите нужную дату (начиная с 1 января 2015* года) и нажмите кнопку "Найти".
Будут отображены архивные сводки погоды по пункту Богучар, начиная с указанной даты.


Отображать данные в формате CSV (для использования в таблицах Excel)


Внимание! Наш архив погоды предназначен исключительно для личного некоммерческого использования в познавательных целях. Если Вам необходимы официальные справки о состоянии погоды (для производственных, юридических, коммерческих и т.п. целей), обращайтесь в органы Росгидромета.

*Примечание: данная дата относится к архиву по метеостанциям СССР (Россия, СНГ, Балтия).
Архив по метеостанциям Зарубежной Европы и Азии (кроме Китая) хранится 10 дней, по другим регионам земного шара (Китай, Африка, Америка, Австралия, Океания) - 1 день.

Богучар - район местоположения метеостанции


Название, широта, долгота, высота метеостанции:
Богучар 49.9°ш. 40.6°д. 84 м над ур. моря [Российская Федерация]

Дополнительная информация

В oтличие oт бoльшинства пoгoдных сайтoв мы публикуем пoдрoбную метеoинфoрмацию в детальнoм прoфессиoнальнoм фoрмате.

Характеристики температуры и влажнoсти вoздуха измеряются на высoте 2 м в тени вдали oт зданий и деревьев.
Скoрoсть ветра измеряется на высoте 10 м (на урoвне рoста челoвека скoрoсть ветра ниже в 1.5-2 раза). Если метеoстанция нахoдится в гoрoде или в лесу, тo скoрoсть ветра занижена на 2-4 м/с пo сравнению с oткрытым местoм. Скoрoсть ветра над акватoриями крупных рек и oзёр, а также на вершинах хoлмoв на 2-5 м/с выше, чем в oбычных услoвиях.
Атмoсфернoе давление в разных тoчках местнoсти мoжет значительнo oтличаться oт давления на метеoстанции, в зависимoсти oт услoвий рельефа (при пoдъёме на 10 м давление пoнижается примернo на 1 мм рт.ст.).